Bellingham, WA
on Thursday, November 22, 2012

Thursday
Previous Day Next Day
Daily Summary
 ActualAverageRecord
Temperature
Mean Temperature °F 42°F  
Max Temperature 48°F 48°F 60°F (1995)
Min Temperature 35°F 35°F 11°F (1985)
Degree Days
Heating Degree Days 25 23  
Month to date heating degree days 459  
Cooling Degree Days 0 0  
Month to date cooling degree days 0  
Year to date cooling degree days 42  
Moisture
Dew Point 37°F   
Average Humidity 82    
Maximum Humidity 93    
Minimum Humidity 64    
Precipitation
Precipitation 0.00 in 0.19 in 0.92 in (2011)
Month to date precipitation 4.32  
Year to date precipitation 30.13  
Wind
Wind Speed 4 mph   
Max Wind Speed 10 mph   
Max Gust Speed 16 mph   
Visibility 9 miles   
Events Rain   

Key: T is trace of precipitation, MM is missing value
Source: NWS Daily Summary
Time(PST)TemperatureDew PointHumidity Pressure Visibility Wind DirectionWind SpeedGust SpeedPrecipitationEvents Conditions
12:53 AM 43.0°F 39.0°F 86% 30.31 in 10.0 miles SSE 5.8 mph - N/A   Scattered Clouds
1:53 AM 39.9°F 37.0°F 89% 30.33 in 10.0 miles SSE 3.5 mph - N/A   Partly Cloudy
2:53 AM 39.0°F 37.0°F 93% 30.34 in 10.0 miles Calm Calm - N/A   Clear
3:53 AM 35.6°F 33.8°F 93% 30.32 in 7.0 miles Calm Calm - N/A   Clear
4:46 AM 35.6°F 33.8°F 93% 30.33 in 1.8 miles Calm Calm - N/A   Mostly Cloudy
4:53 AM 36.0°F 34.0°F 93% 30.37 in 3.0 miles Calm Calm - N/A   Mostly Cloudy
5:53 AM 37.9°F 36.0°F 93% 30.38 in 10.0 miles Calm Calm - N/A   Mostly Cloudy
6:53 AM 37.0°F 35.1°F 93% 30.38 in 10.0 miles ENE 4.6 mph - N/A   Overcast
7:53 AM 37.9°F 36.0°F 93% 30.39 in 10.0 miles NE 3.5 mph - N/A   Scattered Clouds
8:53 AM 39.9°F 37.0°F 89% 30.39 in 10.0 miles North 3.5 mph - N/A   Overcast
9:53 AM 42.1°F 37.9°F 85% 30.38 in 10.0 miles NNE 6.9 mph - N/A   Overcast
10:53 AM 44.1°F 39.0°F 82% 30.38 in 10.0 miles NNE 6.9 mph - N/A   Overcast
11:53 AM 45.0°F 37.0°F 74% 30.36 in 10.0 miles NE 4.6 mph - N/A   Overcast
12:53 PM 45.0°F 37.0°F 74% 30.34 in 10.0 miles NNE 5.8 mph - N/A   Overcast
1:53 PM 45.0°F 37.0°F 74% 30.34 in 10.0 miles North 4.6 mph - N/A   Overcast
2:53 PM 44.1°F 37.9°F 79% 30.32 in 10.0 miles North 6.9 mph - N/A   Overcast
3:53 PM 44.1°F 37.9°F 79% 30.32 in 10.0 miles NNE 5.8 mph - N/A   Overcast
4:53 PM 44.1°F 37.0°F 76% 30.29 in 10.0 miles NNE 8.1 mph - N/A   Overcast
5:53 PM 44.1°F 37.0°F 76% 30.25 in 10.0 miles NNE 5.8 mph - N/A   Overcast
6:53 PM 45.0°F 37.0°F 74% 30.24 in 10.0 miles NNE 9.2 mph - N/A   Overcast
7:53 PM 44.1°F 37.0°F 76% 30.21 in 10.0 miles NE 8.1 mph 16.1 mph N/A   Overcast
8:53 PM 45.0°F 36.0°F 71% 30.19 in 10.0 miles NNE 10.4 mph - N/A   Overcast
9:53 PM 44.1°F 37.0°F 76% 30.19 in 10.0 miles North 4.6 mph - N/A   Overcast
10:53 PM 44.1°F 37.0°F 76% 30.17 in 10.0 miles Variable 5.8 mph - N/A   Overcast
11:53 PM 48.9°F 37.0°F 64% 30.16 in 10.0 miles ESE 9.2 mph - 0.00 in Rain Light Rain
Moon Phase
Nov. 22 Nov. 28 Dec. 06 Dec. 13 Dec. 20
Sunrise:07:30 AM (PST) Moon Rise:01:32 PM (PST)11/22
Sunset:04:22 PM (PST) Moon Set:01:30 AM (PST)11/22

Copyright © 2014 The Weather Underground, Inc.